This is the latest recevied weather packets stored in our database for station/object KB3KBR-WX. If no packets are shown the sender has not sent any weather packets the latest 10 day(s).
| Time | Temp. | Humidity | Pressure | Rain* | Wind** | Luminosity | Snow |
|---|---|---|---|---|---|---|---|
| 1778208274 | 6.11° C | 67% | 1009.8 hPa | 0 mm | - | - | - |
| 1778208242 | 6.11° C | 67% | 1009.8 hPa | 0 mm | - | - | - |
| 1778207912 | 5.56° C | 69% | 1009.9 hPa | 0 mm | - | - | - |
| 1778207582 | 5.56° C | 71% | 1009.8 hPa | 0 mm | - | - | - |
| 1778207252 | 5.56° C | 71% | 1009.7 hPa | 0 mm | - | - | - |
| 1778206923 | 6.11° C | 71% | 1009.8 hPa | 0 mm | - | - | - |
| 1778206630 | 6.11° C | 70% | 1009.7 hPa | 0 mm | - | - | - |
| 1778206593 | 6.11° C | 70% | 1009.7 hPa | 0 mm | - | - | - |
| 1778206292 | 6.67° C | 69% | 1009.6 hPa | 0 mm | - | - | - |
| 1778205662 | 6.67° C | 67% | 1009.5 hPa | 0 mm | - | - | - |
| 1778205332 | 6.67° C | 67% | 1009.5 hPa | 0 mm | - | - | - |
| 1778205002 | 7.22° C | 67% | 1009.4 hPa | 0 mm | - | - | - |
| 1778204672 | 7.22° C | 66% | 1009.5 hPa | 0 mm | - | - | - |
| 1778204342 | 7.78° C | 66% | 1009.4 hPa | 0 mm | - | - | - |
| 1778204012 | 7.78° C | 63% | 1009.4 hPa | 0 mm | - | - | - |
| 1778203712 | 7.78° C | 63% | 1009.3 hPa | 0 mm | - | - | - |
| 1778203382 | 7.78° C | 63% | 1009.3 hPa | 0 mm | - | - | - |
| 1778203102 | 8.33° C | 62% | 1009.1 hPa | 0 mm | - | - | - |
| 1778203052 | 8.33° C | 62% | 1009.1 hPa | 0 mm | - | - | - |
| 1778202752 | 8.33° C | 62% | 1009.1 hPa | 0 mm | - | - | - |
| 1778202422 | 8.33° C | 62% | 1009 hPa | 0 mm | - | - | - |
| 1778202122 | 8.33° C | 62% | 1008.9 hPa | 0 mm | - | - | - |
| 1778201826 | 8.89° C | 61% | 1008.9 hPa | 0 mm | - | - | - |
| 1778201792 | 8.89° C | 61% | 1008.9 hPa | 0 mm | - | - | - |
| 1778201462 | 8.89° C | 61% | 1008.9 hPa | 0 mm | - | - | - |
* Rain latest hour (hover to see other rain measurements)
** Current wind speed in m/s (hover to see current wind gust speed)